Flag for Austria Weather past 2 weeks in Eisenstadt, Burgenland, Austria

Now
63 °F

Sprinkles. Cloudy.


Feels Like: 63 °F
Forecast: 60 / 73 °F
Wind: 1 mph from Southwest

Location: Eisenstadt

Current Time: Sep 3, 2015 at 11:19:02 AM

Latest Report: Sep 3, 2015 at 10:00 AM


Visibility: N/A

Pressure: 29.96 "Hg

Humidity: 76%

Dew point: 55 °F

Location of EisenstadtLocation

Historic Weather in Eisenstadt — Graph

°F

Eisenstadt temperature yesterday

Maximum temperature yesterday: 80 °F (at 12:00 AM)
Minimum temperature yesterday: 62 °F (at 11:00 PM)
Average temperature yesterday: 69 °F

Past Weeks' High & Low Weather Summary

 TemperatureHumidityPressure
High94 °F (Aug 30, 4:00 PM)95% (Aug 20, 9:00 AM)30.22 "Hg (Aug 20, 9:00 AM)
Low53 °F (Aug 26, 7:00 AM)19% (Aug 31, 3:00 PM)29.68 "Hg (Sep 1, 7:00 PM)
Average71 °F66%30.01 "Hg
* Reported Aug 19 10:00 AM — Sep 3 10:00 AM, Eisenstadt, Weather by CustomWeather, © 2015

Note: Actual official high and low records may vary slightly from our data, if they occured in-between our weather recording intervals... More about our weather records

Advertising

Eisenstadt weather history for previous 24 hours

 ConditionsComfort  
Time TempWeatherWind HumidityBarometerVisibility
10:00 AM
Thu, Sep 3
63 °FSprinkles. Cloudy.1 mph76%29.96 "HgN/A
9:00 AM60 °FSprinkles. Cloudy.1 mph83%29.97 "HgN/A
8:00 AM61 °FOvercast.1 mph78%29.97 "Hg12 mi
7:00 AM59 °FOvercast.5 mph83%29.96 "Hg16 mi
5:00 AM59 °FOvercast.5 mph83%29.97 "Hg6 mi
4:00 AM59 °FCool.5 mph85%29.97 "HgN/A
3:00 AM60 °FCool.6 mph87%29.98 "HgN/A
2:00 AM60 °FOvercast.6 mph88%29.97 "Hg6 mi
1:00 AM61 °FCool.6 mph87%29.98 "HgN/A
12:00 AM61 °FCool.2 mph90%29.98 "HgN/A
11:00 PM
Wed, Sep 2
62 °FDrizzle. Overcast.1 mph92%29.97 "Hg6 mi
10:00 PM62 °FCool.1 mph90%29.97 "HgN/A
9:00 PM62 °FCool.3 mph93%29.96 "HgN/A
8:00 PM63 °FOvercast.No wind91%29.94 "Hg6 mi
7:00 PM63 °FRain. Overcast.2 mph90%29.95 "Hg6 mi
6:00 PM66 °FFog.1 mph81%29.94 "HgN/A
5:00 PM71 °FMild.2 mph50%29.92 "HgN/A
4:00 PM72 °FMild.3 mph52%29.92 "HgN/A
3:00 PM72 °FMild.3 mph52%29.93 "HgN/A
2:00 PM72 °FPartly sunny.5 mph53%29.95 "Hg16 mi
1:00 PM74 °FMild.6 mph53%29.96 "HgN/A
12:00 PM72 °FMild.5 mph56%29.96 "HgN/A
11:00 AM69 °FPartly sunny.5 mph61%29.98 "Hg12 mi
Weather by CustomWeather, © 2015

See weather overviewHow to use our weather pages